This is the latest recevied weather packets stored in our database for station/object SP1BMW-13. If no packets are shown the sender has not sent any weather packets the latest 10 day(s).
| Time | Temp. | Humidity | Pressure | Rain* | Wind** | Luminosity | Snow |
|---|---|---|---|---|---|---|---|
| 1787866157 | 19.44° C | 54% | 1016.9 hPa | 0 mm | 0.45 m/s, 35° | 0 W/m² | - |
| 1787866097 | 19.44° C | 54% | 1016.7 hPa | 0 mm | 0 m/s | 0 W/m² | - |
| 1787866036 | 19.44° C | 54% | 1016.8 hPa | 0 mm | 0.45 m/s, 71° | 0 W/m² | - |
| 1787865976 | 19.44° C | 54% | 1016.8 hPa | 0 mm | 0.89 m/s, 59° | 0 W/m² | - |
| 1787865917 | 19.44° C | 54% | 1016.7 hPa | 0 mm | 0.45 m/s, 89° | 0 W/m² | - |
| 1787865857 | 19.44° C | 53% | 1016.9 hPa | 0 mm | 1.34 m/s, 46° | 0 W/m² | - |
| 1787865797 | 19.44° C | 54% | 1016.8 hPa | 0 mm | 0.45 m/s, 112° | 0 W/m² | - |
| 1787865737 | 19.44° C | 54% | 1016.9 hPa | 0 mm | 0.45 m/s, 275° | 0 W/m² | - |
| 1787865676 | 19.44° C | 53% | 1016.8 hPa | 0 mm | 0.45 m/s, 95° | 0 W/m² | - |
| 1787865617 | 19.44° C | 53% | 1016.9 hPa | 0 mm | 0.45 m/s, 43° | 0 W/m² | - |
| 1787865556 | 19.44° C | 53% | 1016.9 hPa | 0 mm | 0.45 m/s, 262° | 0 W/m² | - |
| 1787865496 | 19.44° C | 53% | 1016.7 hPa | 0 mm | 0.45 m/s, 95° | 0 W/m² | - |
| 1787865437 | 19.44° C | 53% | 1017.1 hPa | 0 mm | 0 m/s | 0 W/m² | - |
| 1787865377 | 19.44° C | 53% | 1016.8 hPa | 0 mm | 0.45 m/s, 28° | 0 W/m² | - |
| 1787865316 | 19.44° C | 53% | 1016.8 hPa | 0 mm | 2.24 m/s, 39° | 0 W/m² | - |
| 1787865256 | 19.44° C | 53% | 1016.9 hPa | 0 mm | 0.45 m/s, 34° | 0 W/m² | - |
| 1787865196 | 19.44° C | 53% | 1017 hPa | 0 mm | 1.34 m/s, 104° | 0 W/m² | - |
| 1787865136 | 19.44° C | 53% | 1016.7 hPa | 0 mm | 0.45 m/s, 77° | 0 W/m² | - |
| 1787865076 | 19.44° C | 53% | 1016.9 hPa | 0 mm | 0.45 m/s, 69° | 0 W/m² | - |
| 1787865017 | 19.44° C | 53% | 1016.7 hPa | 0 mm | 0.89 m/s, 63° | 0 W/m² | - |
| 1787864957 | 19.44° C | 52% | 1016.9 hPa | 0 mm | 0.89 m/s, 56° | 0 W/m² | - |
| 1787864897 | 19.44° C | 53% | 1016.9 hPa | 0 mm | 0.89 m/s, 119° | 0 W/m² | - |
| 1787864836 | 19.44° C | 53% | 1016.7 hPa | 0 mm | 0.89 m/s, 18° | 0 W/m² | - |
| 1787864776 | 19.44° C | 53% | 1016.8 hPa | 0 mm | 0.89 m/s, 77° | 0 W/m² | - |
| 1787864717 | 19.44° C | 53% | 1016.9 hPa | 0 mm | 0.45 m/s, 136° | 0 W/m² | - |
* Rain latest hour (hover to see other rain measurements)
** Current wind speed in m/s (hover to see current wind gust speed)